www.pogodaiklimat.ru

Погода и климат >> Архив погоды >> Индия >> Panjim


ПОГОДА в Panjim

  • Прогноз погоды в Panjim
  • Монитор погоды в Panjim
  • Климат города

АРХИВ ПОГОДЫ в Panjim

Время (UTC), дата Ветер
(напр.,м/с)
 
Видим.   Явления Облачность Т
(С)
Тd
(С)
f
(%)
Тe
(С)
Тes
(С)
Комфортность P
(гПа)
Po
(гПа)
Тmin
(С)
Tmax
(С)
R
(мм)
R24
(мм)
S
(см)
06 14.05 СЗ 2 4000 м мгла 8/4 600 м
[Sc diur, vesp Ac trans Ci sp]
+33.6 +23.9 57 +45 +54 опасность
перегрева
1010.1 1010.0
09 14.05 З 2 4000 м мгла 8/1 600 м
[Sc diur, vesp Ac trans Ci sp]
+34.6 +23.8 54 +46 +56 опасность
перегрева
1007.0 1007.0
12 14.05 З 2 4000 м мгла 8/5 600 м
[Cb calv As op Ci sp]
+32.6 +25.3 66 +47 +48 опасность
перегрева
1006.1 1006.0 +34.6
15 14.05 СЗ 2 4000 м 6/4 600 м
[Sc diur, vesp Ac trans Ci sp]
+30.4 +26.2 78 +46 +46 опасность
перегрева
1007.4 1007.0
18 14.05 СЗ 2 4000 м 9/9 600 м
[]
+26.9 +26.3 97 -1 -1 1008.3 1008.3
21 14.05 штиль 0 4000 м зарница {гроза, дождь} 10/5 300 м
[Cb cap Ac As]
+23.8 +23.2 96 +32 +32 очень
душно
1008.7 1009.0 49
00 15.05 СВ 2 4000 м {гроза, дождь} 4/1 600 м
[Sc diur, vesp Ci sp]
+23.0 +22.4 96 +31 +31 очень
душно
1008.4 1008.0 49
03 15.05 ЮВ 2 4000 м 5/0
[Ci fib]
+27.0 +22.6 77 +36 +42 очень
душно
1009.7 1010.0 +22.6 +34.6 49
06 15.05 З 2 4000 м 1/1 600 м
[Cu hum]
+33.0 +24.5 61 +46 +66 опасность
перегрева
1009.1 1009.0
09 15.05 СЗ 2 4000 м 3/0
[Ci sp]
+33.2 +25.0 62 +47 +63 опасность
перегрева
1006.0 1006.0
12 15.05 СЗ 2 4000 м 5/3 600 м
[Sc diur, vesp Ci sp]
+32.4 +26.3 70 +49 +50 опасность
перегрева
1005.0 1005.0 +33.5
15 15.05 СЗ 2 4000 м 5/3 600 м
[Sc diur, vesp Ci sp]
+29.6 +26.0 81 +44 +44 опасность
перегрева
1006.0 1006.0
18 15.05 З 1 4000 м 5/3 600 м
[Sc diur, vesp Ci sp]
+28.8 +25.1 80 +42 +42 опасность
перегрева
1006.6 1007.0
21 15.05 штиль 0 4000 м {морось} 8/4 300 м
[Cu Sc Ac trans]
+21.6 +19.8 89 +27 +27 душно 1005.7 1006.3 4
00 16.05 В 1 4000 м 5/3 600 м
[Sc diur, vesp Ci sp]
+26.4 +24.7 90 +37 +37 очень
душно
1005.5 1006.0
03 16.05 ЮВ 2 4000 м мгла 1/0
[Ac trans]
+28.6 +23.4 73 +39 +45 очень
душно
1008.1 1008.0 +25.6 +33.5
06 16.05 З 2 4000 м мгла 3/3 600 м
[Sc diur, vesp]
+33.2 +26.3 67 +49 +64 опасность
перегрева
1007.9 1008.0
09 16.05 З 3 4000 м 1/1 600 м
[Cu hum]
+34.0 +25.7 62 +49 +62 опасность
перегрева
1006.4 1006.0
12 16.05 СЗ 3 4000 м 6/3 600 м
[Sc diur, vesp Ci sp]
+32.0 +25.9 70 +47 +49 опасность
перегрева
1005.1 1005.0 +34.3
15 16.05 В 2 4000 м {гроза, дождь} 8/4 300 м
[Frnb Ac trans Ci sp]
+24.6 +22.4 88 +32 +32 очень
душно
1007.2 1007.0 5
18 16.05 штиль 0 4000 м {гроза, дождь} 6/4 600 м
[Frnb Ac trans Ci sp]
+26.0 +21.5 76 +33 +33 очень
душно
1007.4 1007.0 5
21 16.05 штиль 0 4000 м 4/1 600 м
[Sc diur, vesp Ci sp]
+25.2 +24.3 95 +35 +35 очень
душно
1004.8 1005.0 5
00 17.05 штиль 0 4000 м 4/1 600 м
[Sc diur, vesp Ci sp]
+25.0 +23.5 91 +34 +34 очень
душно
1005.5 1006.0 5
03 17.05 ЮВ 1 4000 м мгла ясно +28.0 +23.7 77 +38 +45 очень
душно
1007.2 1007.0 +23.0 +34.3 5
06 17.05 0 н/о +31.2 +19.3 87 +37 +37 очень
душно
1004.1 1006.2
09 17.05 З 2 4000 м мгла 4/4 600 м
[Sc diur, vesp]
+33.2 +27.5 72 +52 +63 опасность
перегрева
1005.3 1005.0
12 17.05 З 2 4000 м мгла 9/5 600 м
[Sc diur, vesp Ci sp]
+32.4 +26.9 73 +50 +51 опасность
перегрева
1004.5 1005.0 +33.5
15 17.05 ЮВ 7 4000 м зарница 10/8 300 м
[Cb calv Ac As]
+26.8 +22.7 78 +35 +35 очень
душно
1007.4 1007.0
18 17.05 ЮВ 1 4000 м 10/8 300 м
[Sc diur, vesp Ac trans Ci sp]
+26.4 +22.9 81 +35 +35 очень
душно
1008.4 1008.0
21 17.05 штиль 0 4000 м 8/3 600 м
[Sc diur, vesp Ac trans]
+27.0 +24.1 84 +37 +37 очень
душно
1007.5 1008.0
00 18.05 В 1 4000 м 10/5 600 м
[Sc diur, vesp Ac trans Ci sp]
+27.0 +24.1 84 +37 +37 очень
душно
1007.6 1008.0
03 18.05 штиль 0 4000 м мгла 9/5 600 м
[Sc diur, vesp Ac trans Ci sp]
+27.0 +24.4 86 +38 +40 очень
душно
1008.2 1008.0 +25.0 +33.5
06 18.05 З 2 4000 м мгла 9/5 600 м
[Sc diur, vesp Ac trans Ci sp]
+31.6 +25.1 69 +46 +52 опасность
перегрева
1008.3 1008.0
09 18.05 З 2 4000 м мгла 8/5 600 м
[Sc diur, vesp Ac trans Ci sp]
+33.2 +26.0 66 +49 +55 опасность
перегрева
1005.9 1006.0
12 18.05 З 2 4000 м мгла 8/5 600 м
[Sc diur, vesp Ac trans Ci sp]
+32.4 +26.9 73 +50 +51 опасность
перегрева
1004.9 1005.0 +33.8
15 18.05 З 2 4000 м 5/3 600 м
[Sc diur, vesp Ci sp]
+30.0 +25.8 78 +45 +45 опасность
перегрева
1006.3 1006.0
18 18.05 З 2 4000 м 5/3 600 м
[Sc diur, vesp Ci sp]
+29.2 +26.1 83 +44 +44 опасность
перегрева
1007.0 1007.0
21 18.05 В 1 4000 м 8/5 600 м
[Sc diur, vesp Ci sp]
+28.6 +27.2 92 +45 +45 опасность
перегрева
1005.9 1006.0
00 19.05 штиль 0 4000 м 8/5 600 м
[Sc diur, vesp Ci sp]
+28.0 +26.6 92 +43 +43 опасность
перегрева
1006.0 1006.0
03 19.05 штиль 0 4000 м мгла 3/1 600 м
[Cu hum Ci fib]
+30.0 +27.3 85 +48 +55 опасность
перегрева
1007.9 1008.0 +27.0 +33.8
06 19.05 З 2 4000 м мгла 3/3 600 м
[Sc diur, vesp]
+33.0 +26.1 67 +49 +63 опасность
перегрева
1007.9 1008.0
09 19.05 З 2 4000 м мгла 5/3 600 м
[Sc diur, vesp Ci sp]
+33.8 +26.9 67 +51 +64 опасность
перегрева
1005.7 1006.0
12 19.05 З 2 4000 м мгла 9/4 600 м
[Sc diur, vesp Ac trans Ci sp]
+32.8 +27.1 72 +51 +52 опасность
перегрева
1004.5 1005.0 +34.2
15 19.05 СЗ 2 4000 м 9/3 600 м
[Sc diur, vesp Ac trans Ci sp]
+30.6 +27.0 81 +48 +48 опасность
перегрева
1005.9 1006.0
18 19.05 штиль 0 4000 м 10/8 600 м
[Sc Ac trans]
+30.0 +27.0 84 +47 +47 опасность
перегрева
1006.5 1007.0
21 19.05 штиль 0 4000 м 8/8 600 м
[Sc diur, vesp]
+29.4 +26.7 85 +45 +45 опасность
перегрева
1005.5 1006.0
00 20.05 В 1 4000 м 9/6 600 м
[Sc diur, vesp Ac trans Ci sp]
+29.0 +26.2 85 +44 +44 опасность
перегрева
1006.6 1007.0
03 20.05 ЮЗ 4 4000 м мгла 10/5 300 м
[Frnb Ac As]
+29.2 +26.7 86 +45 +46 опасность
перегрева
1009.6 1010.0 +28.0 +34.2
06 20.05 ЮЗ 2 4000 м мгла 10/4 300 м
[Frnb Ac As Ci sp]
+29.6 +25.4 78 +43 +50 опасность
перегрева
1009.2 1009.0
09 20.05 З 2 4000 м мгла 8/3 600 м
[Sc diur, vesp As op Ci sp]
+32.8 +24.9 63 +46 +54 опасность
перегрева
1006.6 1007.0
12 20.05 СЗ 2 4000 м мгла 8/1 600 м
[Sc diur, vesp As op Ci sp]
+30.8 +25.5 73 +45 +46 опасность
перегрева
1005.8 1006.0 +26.2 +33.2
15 20.05 СЗ 1 4000 м 5/1 600 м
[Sc diur, vesp Ci sp]
+29.4 +25.2 78 +43 +43 опасность
перегрева
1006.5 1007.0
18 20.05 штиль 0 4000 м 5/3 600 м
[Sc diur, vesp Ci sp]
+29.4 +26.1 82 +44 +44 опасность
перегрева
1006.9 1007.0
21 20.05 штиль 0 4000 м 6/3 600 м
[Sc diur, vesp Ci sp]
+28.6 +26.7 89 +44 +44 опасность
перегрева
1005.8 1006.0
00 21.05 штиль 0 4000 м 9/5 600 м
[Sc diur, vesp Ac trans Ci sp]
+28.0 +26.6 92 +43 +43 опасность
перегрева
1005.9 1006.0

 

Местоположение метеостанции Panjim (Goa, Индия): широта 15.48 долгота 73.82 высота над уровнем моря 60 м.

В архиве по умолчанию представлена погода в Panjim за последнюю неделю. Архивные данные за месяц целиком и за предыдущие месяцы, начиная с января 2011 года, Вы можете получить, выбрав интересующий диапазон дат из раскрывающегося списка и нажав кнопку "Ввод!".


*Определитесь, кто Вы:
робот инопланетянин человек

Внимание! Время в таблицах - всемирное. Для получения местного времени необходимо прибавить поправку, которая в Panjim равна 5.5 ч.

Смотрите также архив погоды в соседних городах и на ближайших метеорологических станциях:

Погода в Mormugao (Goa, Индия) (8 км)
Погода в Vengurla (Maharashtra, Индия) (48 км)
Погода в Karwar (Karnataka, Индия) (85 км)
Погода в Belgaum (Karnataka, Индия) (86 км)
Погода в Belgaum Airport (Karnataka, Индия) (95 км)
Погода в Dharwad (Karnataka, Индия) (124 км)
Погода в Kolhapur (Maharashtra, Индия) (143 км)
Погода в Honavar (Karnataka, Индия) (150 км)
Погода в Sangli (Maharashtra, Индия) (174 км)
Погода в Shirali (Karnataka, Индия) (174 км)

Пояснения к столбцам:

Ветер - указаны скорость ветра в м/с - средняя за 10 мин, порывы в срок и между сроками (в фигурных скобках) и направление, откуда дует ветер: С - северный, СВ - северо-восточный, В - восточный, ЮВ - юго-восточный, Ю - южный, ЮЗ - юго-западный, З - западный, СЗ - северо-западный.
Видимость - горизонтальная дальность видимости в метрах или километрах. При видимости от 1 до 10 км при отсутствии осадков обычно наблюдается дымка, при ухудшении видимости до 1 км и менее - туман. В сухую погоду видимость может ухудшаться дымом, пылью или мглою.
Явления - указаны атмосферные явления, наблюдавшиеся в срок или в последний час перед сроком; фигурными скобками обозначены явления, наблюдавшиеся между сроками (за 1-3 часа до срока); квадратными скобками обозначены град или гололедные отложения с указанием их диаметра в мм.
Облачность - указаны через наклонную черту общая и нижняя облачность в баллах и высота нижней границы облаков в метрах; квадратными скобками обозначены формы облаков: Ci - перистые, Cs - перисто-слоистые, Cc - перисто-кучевые, Ac - высококучевые, As - высокослоистые, Sc - слоисто-кучевые, Ns - слоисто-дождевые, Cu - кучевые, Cb - кучево-дождевые. Подробнее классификацию облаков см. в Атласе облаков (PDF).
T - Температура воздуха - температура, измеренная на высоте 2 м над землей.
Td - Температура точки росы - температура, при понижении до которой содержащийся в воздухе водяной пар достигнет насыщения.
f - Относительная влажность воздуха - влажноcть воздуха, измеренная на высоте 2 м над землей.
Te - Эффективная температура - температура, которую ощущает одетый по сезону человек в тени. Характеристика душности погоды. При расчете учитывается влияние влажности воздуха и скорости ветра на теплоощущения человека.
Tes - Эффективная температура на солнце - температура, которую ощущает человек, с поправкой на солнечный нагрев. Характеристика знойности погоды. Зависит от высоты солнца над горизонтом, облачности и скорости ветра. Ночью, в пасмурную погоду, а также при ветре 12 м/с и более поправка равна нулю.
P - Атмосферное давление - приведенное к уровню моря атмосферное давление.
Po - Атмосферное давление - измеренное на уровне метеостанции атмосферное давление.
Tmin - Минимальная температура - минимум температуры воздуха на высоте 2 м над землей.
Tmax - Максимальная температура - максимум температуры воздуха на высоте 2 м над землей.
R - Количество осадков - Количество выпавших осадков за период времени, мм. При наведении курсора мыши на число - период времени, за который выпало указанное количество осадков.
R24 - Количество осадков - Количество выпавших осадков за 24 часа, мм.
S - Снежный покров - Высота снежного покрова, см. При наведении курсора мыши на число - состояние снежного покрова и степень покрытия местности в баллах.